Regional Weather Roundup
Issued by NWS Newport/Morehead, NC

Current Version | Previous Version | Text Only | Print | Product List | Glossary Off
Versions: 1 2 3 4 5 6 7 8 9 10 11 12 13 14 15 16 17 18 19 20 21 22 23 24 25 26 27 28 29 30 31 32 33 34 35 36 37 38 39 40 41 42 43 44 45 46 47 48 49 50
000 ASUS42 KMHX 210222 RWRMHX WEATHER ROUNDUP FOR EASTERN NORTH CAROLINA NATIONAL WEATHER SERVICE NEWPORT/MOREHEAD CITY NC 1000 PM EDT SAT SEP 20 2014 NOTE: "FAIR" INDICATES FEW OR NO CLOUDS BELOW 12,000 FEET WITH NO SIGNIFICANT WEATHER AND/OR OBSTRUCTIONS TO VISIBILITY NCZ015>017-031-032-045>047-102-103-210300- NORTH COAST CITY SKY/WX TMP DP RH WIND PRES REMARKS EDENTON CLOUDY 70 68 94 NE5 29.99F ELIZABETH CITY CLOUDY 71 69 93 N8 30.00F KITTY HAWK CLOUDY 74 71 88 E6 29.98F MANTEO LGT RAIN 73 70 88 E6 29.98F $$ NCZ045>047-081-094-103-104-210300- CENTRAL COAST CITY SKY/WX TMP DP RH WIND PRES REMARKS FRISCO LGT RAIN 69 69 100 E8G17 29.95F SWANQUARTER N/A 72 N/A N/A N7G14 29.91F $$ NCZ095-097-098-100-101-210300- SOUTHERN COAST CITY SKY/WX TMP DP RH WIND PRES REMARKS BEAUFORT CLOUDY 71 69 93 N13 29.91F CEDAR ISLAND N/A 73 N/A N/A VRB15G21 29.97F JACKSONVILLE CLOUDY 70 68 94 NE12 29.93F NEWPORT NOT AVBL PINEY ISLAND LGT RAIN 74 70 87 N12 29.93F WILMINGTON CLOUDY 70 68 93 N14 29.91F $$ NCZ011>013-027>030-043-044-078>080-089-090>093-098-210300- COASTAL PLAIN CITY SKY/WX TMP DP RH WIND PRES REMARKS AHOSKIE CLOUDY 68 65 89 N5 30.01F CLINTON CLOUDY 72 67 85 NE6 29.97F ELIZABETHTOWN CLOUDY 71 66 84 NE3 29.95F GOLDSBORO CLOUDY 72 70 94 NE2 29.96F GREENVILLE LGT RAIN 70 68 94 NE6 30.01F HAVELOCK CLOUDY 71 69 93 NE12 29.95F KENANSVILLE CLOUDY 70 67 91 N6 29.97F KINSTON LGT RAIN 70 68 94 N8 29.98F NEW BERN CLOUDY 73 70 88 NE9 29.95F RICHLANDS CLOUDY 70 64 83 N8 29.94F ROANOKE RAPIDS NOT AVBL ROCKY MOUNT CLOUDY 70 65 84 NE5 30.01F WASHINGTON CLOUDY 69 67 95 N6 29.98F WHITEVILLE LGT RAIN 72 66 81 N6 29.94F $$ AMZ130-135-150-152-154-156-158-170-250-252-270-ANZ085-086-088-633-658-670-210300- MARINE OBSERVATIONS STATION/POSITION TIME TEMP WIND PRES WAVE SWELL AIR SEA DIR/SP/G HT/PER HT/PER (UTC) (F) (DEG/KT/KT) (MB) (FT/S) (FT/S) CHESAPEAKE LIGHT 0200 73 80/ 14/ 15 1016.8 BUOY 44014 0200 76 77 140/ 17/ 19 1015.8 7/10 5/10 DUCK 0200 74 74 60/ 15/ 17 1014.9 2E DUCK 0200 N/A 6/ 9 2/12 OREGON INLET 0200 74 73 70/ 8/ 12 1015.0 BUOY 44095 0200 74 N/A 8/10 3/12 20E OREGON INLET NOT AVBL HATTERAS CG 0200 72 74 70/ 9/ 15 1014.4 DIAMOND BUOY 0200 76 60/ 19/ 21 1013.0 7/10 5/10 CAPE LOOKOUT 0200 71 20/ 13/ 16 1012.5 BEAUFORT LAB 0200 71 75 20/ 11/ 15 1012.5 30 SE NEW RIVER 0200 75 83 40/ 25/ 29 1011.6 6/10 3/10 5 SE WRIGHTSVILL 0200 71 80 30/ 21/ 27 N/A BUOY 41002 0129 78 82 190/ 17/ 21 1011.7 8/10 5/10 BUOY 41004 0200 77 82 10/ 25/ 29 1010.5 8/ 8 5/ 8 $$

USA.gov is the U.S. government's official web portal to all federal, state and local government web resources and services.